SL-27 R/B (40354 NORAD) Tracking and Keplerian Element Data

This shows tracking and keplerian element data for the satellite.

Feedback or suggestion? Click here.




ElementValue
Catalog40354
NameSL-27 R/B
Epoch Orbit53308
Epoch Day159.92732954
Epoch Year2024
RAAN230.0022
Inclination74.7226
Eccentricity0.0017599
Argument of Perigee25.3324
Mean Anonmoly334.8765
Mean Motion15.75203961
Decay Rate0.0007473
L11 40354U 14084B 24159.92732954 .00074730 00000+0 49046-3 0 9991
L22 40354 74.7226 230.0022 0017599 25.3324 334.8765 15.75203961533089



Live tracking and technical data element details for SL-27 R/B (NORAD 40354). SL-27 R/B can be tracked NOW for your location showing map with azimuth and elevation plus other details from your city location.







IsCatalogInMostPopularTable: catalog: 40354, numindb: 635
Update: records affected: 1



GetName: 40354 SL-27 R/B

Hit Count: updated at: Mon, 13 Jan 2025 19:43:08 GMT